When you browse on this site, cookies collect data to enhance your experience and personalize the content and advertising you see.
Visit our Privacy Policy to learn more. By continuing to use the site, you agree to this use of cookies and data.
  • In Portugal
  • List of Countries
  • For 7 days
  • Water Temperature
  • Satellite Maps
  • Weather Map
  • Weather Widgets
  • user-avatar
    Login

    Hourly Weather Malanje

    Today, 22 March, Friday

    Time Temperature Precipitation Wind Pressure Humidity
    00:00 +22°C° 0 mm 1 mps 664 mmHg 75%
    01:00 +19°C° 0 mm 0 mps 664 mmHg 79%
    02:00 +21°C° 0 mm 1 mps 664 mmHg 83%
    03:00 +20°C° 0 mm 1 mps 664 mmHg 87%
    04:00 +20°C° 0 mm 1 mps 664 mmHg 91%
    05:00 +20°C° 0.1 mm 1 mps 664 mmHg 91%
    06:00 +21°C° 0.1 mm 1 mps 664 mmHg 90%
    07:00 +21°C° 0 mm 1 mps 665 mmHg 88%
    08:00 +24°C° 0 mm 1 mps 665 mmHg 80%
    09:00 +26°C° 0 mm 1 mps 666 mmHg 72%
    10:00 +29°C° 0 mm 2 mps 666 mmHg 64%
    11:00 +30°C° 0 mm 1 mps 666 mmHg 59%
    12:00 +31°C° 0 mm 1 mps 666 mmHg 54%
    13:00 +32°C° 0 mm 1 mps 666 mmHg 48%
    14:00 +32°C° 0 mm 1 mps 665 mmHg 51%
    15:00 +32°C° 0 mm 1 mps 665 mmHg 53%
    16:00 +31°C° 0 mm 1 mps 664 mmHg 55%
    17:00 +29°C° 0 mm 1 mps 664 mmHg 59%
    18:00 +28°C° 0 mm 1 mps 664 mmHg 64%
    19:00 +24°C° 0 mm 0 mps 664 mmHg 68%
    20:00 +25°C° 0 mm 1 mps 664 mmHg 70%
    21:00 +24°C° 0 mm 1 mps 664 mmHg 72%
    22:00 +24°C° 0 mm 1 mps 665 mmHg 74%
    23:00 +23°C° 1.1 mm 1 mps 664 mmHg 79%

    Tomorrow, 23 March, Saturday

    Time Temperature Precipitation Wind Pressure Humidity
    00:00 +20°C° 1.1 mm 0 mps 664 mmHg 84%
    01:00 +20°C° 1.1 mm 0 mps 664 mmHg 89%
    02:00 +21°C° 0.5 mm 1 mps 664 mmHg 91%
    03:00 +21°C° 0.5 mm 1 mps 664 mmHg 92%
    04:00 +20°C° 0.5 mm 1 mps 663 mmHg 94%
    05:00 +21°C° 0 mm 1 mps 664 mmHg 94%
    06:00 +21°C° 0 mm 1 mps 664 mmHg 94%
    07:00 +21°C° 0 mm 1 mps 664 mmHg 94%
    08:00 +23°C° 0.7 mm 1 mps 665 mmHg 89%
    09:00 +25°C° 0.7 mm 1 mps 666 mmHg 84%
    10:00 +27°C° 0.7 mm 1 mps 666 mmHg 79%
    11:00 +29°C° 0.6 mm 1 mps 666 mmHg 70%
    12:00 +30°C° 0.6 mm 1 mps 666 mmHg 62%
    13:00 +32°C° 0.6 mm 1 mps 666 mmHg 53%
    14:00 +31°C° 0 mm 1 mps 665 mmHg 58%
    15:00 +30°C° 0 mm 1 mps 664 mmHg 63%
    16:00 +29°C° 0 mm 1 mps 663 mmHg 68%
    17:00 +27°C° 0.5 mm 1 mps 663 mmHg 73%
    18:00 +25°C° 0.5 mm 1 mps 663 mmHg 78%
    19:00 +24°C° 0.5 mm 1 mps 664 mmHg 84%
    20:00 +23°C° 1.1 mm 2 mps 664 mmHg 87%
    21:00 +21°C° 1.1 mm 2 mps 664 mmHg 91%
    22:00 +21°C° 1.1 mm 3 mps 665 mmHg 94%
    23:00 +20°C° 0.8 mm 2 mps 665 mmHg 95%

    Day after tomorrow, 24 March, Sunday

    Time Temperature Precipitation Wind Pressure Humidity
    00:00 +20°C° 0.8 mm 2 mps 665 mmHg 95%
    01:00 +20°C° 0.8 mm 2 mps 664 mmHg 96%
    02:00 +20°C° 0.1 mm 2 mps 664 mmHg 97%
    03:00 +19°C° 0.1 mm 2 mps 664 mmHg 97%
    04:00 +20°C° 0.1 mm 1 mps 664 mmHg 98%
    05:00 +20°C° 0 mm 1 mps 664 mmHg 98%
    06:00 +20°C° 0 mm 2 mps 664 mmHg 97%
    07:00 +20°C° 0 mm 2 mps 665 mmHg 97%
    08:00 +23°C° 0 mm 1 mps 665 mmHg 90%
    09:00 +24°C° 0 mm 1 mps 666 mmHg 84%
    10:00 +26°C° 0 mm 1 mps 667 mmHg 77%
    11:00 +28°C° 0.3 mm 1 mps 666 mmHg 72%
    12:00 +29°C° 0.3 mm 1 mps 666 mmHg 68%
    13:00 +29°C° 0.3 mm 0 mps 665 mmHg 63%
    14:00 +29°C° 1.5 mm 1 mps 665 mmHg 70%
    15:00 +28°C° 1.5 mm 1 mps 664 mmHg 77%
    16:00 +26°C° 1.5 mm 2 mps 663 mmHg 85%
    17:00 +25°C° 0.5 mm 2 mps 663 mmHg 87%
    18:00 +23°C° 0.5 mm 1 mps 663 mmHg 90%
    19:00 +22°C° 0.5 mm 1 mps 664 mmHg 92%
    20:00 +22°C° 0.3 mm 1 mps 664 mmHg 93%
    21:00 +21°C° 0.3 mm 1 mps 665 mmHg 94%
    22:00 +19°C° 0.3 mm 0 mps 665 mmHg 95%
    23:00 +19°C° 0.5 mm 0 mps 665 mmHg 95%

    25 March, Monday

    Time Temperature Precipitation Wind Pressure Humidity
    00:00 +19°C° 0.5 mm 0 mps 665 mmHg 95%
    01:00 +19°C° 0.5 mm 0 mps 664 mmHg 95%
    02:00 +21°C° 0 mm 1 mps 664 mmHg 95%
    03:00 +21°C° 0 mm 1 mps 663 mmHg 96%
    04:00 +20°C° 0 mm 1 mps 663 mmHg 96%
    05:00 +21°C° 0 mm 1 mps 664 mmHg 95%
    06:00 +21°C° 0 mm 1 mps 664 mmHg 95%
    07:00 +21°C° 0 mm 1 mps 665 mmHg 94%
    08:00 +23°C° 0.4 mm 1 mps 665 mmHg 89%
    09:00 +25°C° 0.4 mm 1 mps 666 mmHg 84%
    10:00 +27°C° 0.4 mm 1 mps 667 mmHg 79%
    11:00 +27°C° 1.9 mm 1 mps 666 mmHg 77%
    12:00 +26°C° 1.9 mm 0 mps 665 mmHg 74%
    13:00 +26°C° 1.9 mm 0 mps 664 mmHg 72%
    14:00 +26°C° 0.7 mm 0 mps 664 mmHg 74%
    15:00 +28°C° 0.7 mm 1 mps 664 mmHg 76%
    16:00 +27°C° 0.7 mm 1 mps 663 mmHg 78%
    17:00 +26°C° 0.7 mm 1 mps 663 mmHg 83%
    18:00 +24°C° 0.7 mm 1 mps 663 mmHg 88%
    19:00 +21°C° 0.7 mm 2 mps 664 mmHg 92%
    20:00 +20°C° 0.4 mm 2 mps 664 mmHg 94%
    21:00 +21°C° 0.4 mm 1 mps 665 mmHg 95%
    22:00 +21°C° 0.4 mm 1 mps 665 mmHg 97%
    23:00 +21°C° 0 mm 1 mps 665 mmHg 97%

    26 March, Tuesday

    Time Temperature Precipitation Wind Pressure Humidity
    00:00 +21°C° 0 mm 1 mps 665 mmHg 98%
    01:00 +20°C° 0 mm 1 mps 664 mmHg 98%
    02:00 +20°C° 0 mm 1 mps 664 mmHg 98%
    03:00 +20°C° 0 mm 1 mps 664 mmHg 99%
    04:00 +20°C° 0 mm 1 mps 664 mmHg 99%
    05:00 +20°C° 0 mm 1 mps 664 mmHg 98%
    06:00 +19°C° 0 mm 0 mps 665 mmHg 97%
    07:00 +19°C° 0 mm 0 mps 665 mmHg 97%
    08:00 +20°C° 0 mm 0 mps 666 mmHg 94%
    09:00 +21°C° 0 mm 0 mps 666 mmHg 91%
    10:00 +21°C° 0 mm 0 mps 666 mmHg 88%
    11:00 +22°C° 0.1 mm 0 mps 666 mmHg 86%
    12:00 +23°C° 0.1 mm 0 mps 665 mmHg 83%
    13:00 +25°C° 0.1 mm 1 mps 664 mmHg 81%
    14:00 +25°C° 0 mm 1 mps 664 mmHg 81%
    15:00 +25°C° 0 mm 1 mps 664 mmHg 82%
    16:00 +25°C° 0 mm 1 mps 663 mmHg 83%
    17:00 +22°C° 0.2 mm 0 mps 664 mmHg 84%
    18:00 +21°C° 0.2 mm 0 mps 664 mmHg 84%
    19:00 +20°C° 0.2 mm 0 mps 665 mmHg 85%
    20:00 +20°C° 0 mm 0 mps 665 mmHg 84%
    21:00 +20°C° 0 mm 0 mps 665 mmHg 83%
    22:00 +20°C° 0 mm 0 mps 665 mmHg 82%
    23:00 +19°C° 0 mm 0 mps 665 mmHg 84%

    27 March, Wednesday

    Time Temperature Precipitation Wind Pressure Humidity
    00:00 +18°C° 0 mm 0 mps 665 mmHg 86%
    01:00 +20°C° 0 mm 1 mps 664 mmHg 88%
    02:00 +17°C° 0 mm 0 mps 664 mmHg 90%
    03:00 +17°C° 0 mm 0 mps 664 mmHg 92%
    04:00 +17°C° 0 mm 0 mps 664 mmHg 94%
    05:00 +17°C° 0 mm 0 mps 665 mmHg 93%
    06:00 +18°C° 0 mm 0 mps 665 mmHg 92%
    07:00 +18°C° 0 mm 0 mps 666 mmHg 91%
    08:00 +22°C° 0 mm 1 mps 666 mmHg 86%
    09:00 +24°C° 0 mm 1 mps 667 mmHg 81%
    10:00 +26°C° 0 mm 1 mps 668 mmHg 75%
    11:00 +27°C° 0 mm 1 mps 667 mmHg 70%
    12:00 +28°C° 0 mm 1 mps 667 mmHg 65%
    13:00 +30°C° 0 mm 1 mps 666 mmHg 59%
    14:00 +30°C° 0 mm 1 mps 666 mmHg 60%
    15:00 +27°C° 0 mm 0 mps 666 mmHg 60%
    16:00 +27°C° 0 mm 0 mps 665 mmHg 61%
    17:00 +25°C° 0 mm 0 mps 665 mmHg 66%
    18:00 +23°C° 0 mm 0 mps 665 mmHg 72%
    19:00 +21°C° 0 mm 0 mps 665 mmHg 77%
    20:00 +21°C° 0 mm 0 mps 665 mmHg 79%
    21:00 +20°C° 0 mm 0 mps 666 mmHg 80%
    22:00 +20°C° 0 mm 0 mps 666 mmHg 81%
    23:00 +19°C° 0.6 mm 0 mps 666 mmHg 84%
    Show more